Regional Weather Roundup
Issued by NWS

Home | Current Version | Previous Version | Graphics & Text | Print | Product List | Glossary On
Versions: 1 2 3 4 5 6 7 8 9 10 11 12 13 14 15 16 17 18 19 20 21 22 23 24 25 26 27 28 29 30 31 32 33 34 35 36 37 38 39 40 41 42 43 44 45 46 47 48 49 50
000
ASUS45 KCYS 250410
RWRWY

WYOMING REGIONAL WEATHER ROUNDUP
NATIONAL WEATHER SERVICE CHEYENNE WY
1000 PM MDT MON JUL 24 2017

NOTE:  "FAIR" INDICATES FEW OR NO CLOUDS BELOW 12,000 FEET
WITH NO SIGNIFICANT WEATHER AND/OR OBSTRUCTIONS TO VISIBILITY.

WYZ001-250500-
YELLOWSTONE NATIONAL PARK

CITY           SKY/WX    TMP DP  RH WIND       PRES   REMARKS
LK YELLOWSTONE   N/A     50  45  83 NW3       30.31R
W YELLOWSTONE  NOT AVBL

$$
WYZ002>013-054>058-071-098>099-250500-
NORTHERN WYOMING

CITY           SKY/WX    TMP DP  RH WIND       PRES   REMARKS
JACKSON        FAIR      66  43  42 NE6       30.17R
CODY           FAIR      78  42  27 VRB6      30.03R
GREYBULL       FAIR      85  32  15 NW20      29.89R
WORLAND        FAIR      83  45  26 N13       29.91R
SHERIDAN       FAIR      77  48  35 NW10      29.95R
BUFFALO        FAIR      79  44  28 W8        30.03R
GILLETTE       FAIR      68  51  54 CALM      29.94R
HULETT         FAIR      81  45  28 CALM      29.94R
NEWCASTLE      FAIR      84  39  20 E15G22    29.91R

$$
WYZ014>020-022>026-101>103-250500-
CENTRAL WYOMING

CITY           SKY/WX    TMP DP  RH WIND       PRES   REMARKS
BIG PINEY      FAIR      65  40  39 NW6       30.19R
PINEDALE       FAIR      63  37  39 N7        30.20R
DUBOIS         FAIR      66  34  30 NW10      30.20R
LANDER         FAIR      79  30  16 SW13      30.03R
RIVERTON       FAIR      78  28  16 W10       30.01R
CASPER         FAIR      72  37  28 W6        30.00R
DOUGLAS        FAIR      76  36  23 SE5       29.97R

$$
WYZ021-027>030-104>119-250500-
SOUTHERN WYOMING

CITY           SKY/WX    TMP DP  RH WIND       PRES   REMARKS
EVANSTON       FAIR      70  45  40 N9        30.19R
KEMMERER         N/A    N/A N/A N/A N12       30.21R
FORT BRIDGER   CLOUDY    74  42  31 SE8       30.21R
ROCK SPRINGS   FAIR      73  38  27 S6        30.15R
RAWLINS        FAIR      72  34  24 NW9       30.15R
SARATOGA       FAIR      73  39  29 S14       30.19R
LARAMIE        FAIR      67  40  37 S8        30.20R
CHEYENNE       FAIR      71  44  37 W8        30.11R
TORRINGTON     FAIR      77  53  43 E9        29.92R
PINE BLUFFS    FAIR      77  43  29 SE10      30.04R

$$



USA.gov is the U.S. government's official web portal to all federal, state and local government web resources and services.